Bormio, Italy 16 day weather forecast

Slopes altitude range 1225 m - 3010m

Number of lifts: 31 Pistes: 98km

In some cases the lift and piste totals shown are for the ski domain (e.g. Three Valleys) rather than individual resort (e.g. Courchevel)

Overview

The 16 day weather forecast is fully updated 4 times every day.

    • Thu 17 JAN 2019
    • Thu 17
    • -10C -5C
    • Fri 18 JAN 2019
    • Fri 18
    • -18C -10C
    • Sat 19 JAN 2019
    • Sat 19
    • -16C -9C
    • Sun 20 JAN 2019
    • Sun 20
    • -18C -8C
    • Mon 21 JAN 2019
    • Mon 21
    • -17C -8C
    • Tue 22 JAN 2019
    • Tue 22
    • -18C -8C
    • Wed 23 JAN 2019
    • Wed 23
    • -12C -8C
    • Thu 24 JAN 2019
    • Thu 24
    • -14C -5C
    • Fri 25 JAN 2019
    • Fri 25
    • -16C -11C
    • Sat 26 JAN 2019
    • Sat 26
    • -24C -14C
    • Sun 27 JAN 2019
    • Sun 27
    • -19C -12C
    • Mon 28 JAN 2019
    • Mon 28
    • -13C -9C
    • Tue 29 JAN 2019
    • Tue 29
    • -21C -10C
    • Wed 30 JAN 2019
    • Wed 30
    • -15C -8C
    • Thu 31 JAN 2019
    • Thu 31
    • -16C -12C
    • Fri 01 FEB 2019
    • Fri 01
    • -19C -14C

Date:

Time Type 0°C level Temp Chill Snow Cloud Speed Gust Dir Press
18:00 904m -5°C -5_4 1cm 64% 4mph 5mph 1012mB
21:00 1040m -9°C -9_4 1cm 99% 4mph 5mph 1012mB
0:00 873m -10°C -10_7 1cm 100% 7mph 10mph 1013mB
3:00 487m -12°C -12_8 1cm 99% 8mph 11mph 1014mB
6:00 0m -17°C -17_7 1cm 78% 7mph 9mph 1016mB
9:00 336m -18°C -18_7 0cm 21% 7mph 10mph 1018mB
12:00 779m -10°C -10_6 0cm 24% 6mph 7mph 1018mB
15:00 416m -10°C -10_3 0cm 69% 3mph 3mph 1018mB
18:00 0m -10°C -10_1 0cm 81% 1mph 2mph 1021mB
21:00 0m -18°C -18_4 0cm 85% 4mph 5mph 1022mB
0:00 0m -18°C -18_4 0cm 83% 4mph 4mph 1021mB
3:00 0m -17°C -17_4 0cm 94% 4mph 4mph 1020mB
6:00 2m -17°C -17_3 0cm 90% 3mph 4mph 1019mB
9:00 545m -16°C -16_3 1cm 84% 3mph 4mph 1019mB
12:00 967m -9°C -9_5 1cm 86% 5mph 6mph 1016mB
15:00 832m -9°C -9_3 1cm 86% 3mph 4mph 1015mB
18:00 177m -9°C -9_3 1cm 76% 3mph 3mph 1017mB
21:00 0m -17°C -17_3 1cm 33% 3mph 3mph 1018mB
0:00 0m -18°C -18_3 0cm 27% 3mph 3mph 1017mB
3:00 0m -18°C -18_2 0cm 73% 2mph 3mph 1017mB
6:00 0m -18°C -18_2 0cm 79% 2mph 3mph 1017mB
9:00 624m -18°C -18_1 0cm 83% 1mph 2mph 1017mB
12:00 1162m -8°C -8_2 0cm 87% 2mph 1mph 1015mB
15:00 858m -8°C -8_1 0cm 89% 1mph 1mph 1015mB
18:00 419m -8°C -8_3 0cm 94% 3mph 3mph 1018mB
21:00 404m -13°C -13_3 1cm 99% 3mph 3mph 1020mB
0:00 313m -13°C -13_3 1cm 98% 3mph 4mph 1021mB
3:00 83m -15°C -15_3 1cm 93% 3mph 4mph 1021mB
6:00 0m -16°C -16_4 1cm 76% 4mph 4mph 1022mB
9:00 552m -17°C -17_3 0cm 29% 3mph 3mph 1022mB
12:00 1075m -8°C -8_2 0cm 26% 2mph 2mph 1020mB
15:00 737m -8°C -8_2 0cm 25% 2mph 2mph 1020mB
18:00 0m -8°C -8_4 0cm 23% 4mph 5mph 1022mB
21:00 0m -17°C -17_3 0cm 4% 3mph 4mph 1022mB
0:00 0m -18°C -18_2 0cm 14% 2mph 3mph 1021mB
3:00 0m -18°C -18_2 0cm 0% 2mph 3mph 1018mB
6:00 0m -18°C -18_2 0cm 2% 2mph 3mph 1016mB
9:00 612m -18°C -18_2 0cm 69% 2mph 2mph 1013mB
12:00 1066m -8°C -8_4 0cm 77% 4mph 5mph 1008mB
15:00 824m -8°C -8_3 1cm 80% 3mph 4mph 1005mB
18:00 390m -8°C -8_2 1cm 87% 2mph 2mph 1005mB
21:00 440m -13°C -13_1 1cm 95% 1mph 2mph 1004mB
0:00 472m -13°C -13_1 1cm 96% 1mph 1mph 1002mB
3:00 387m -13°C -13_1 1cm 96% 1mph 2mph 1001mB
6:00 424m -13°C -13_2 1cm 97% 2mph 2mph 1000mB
9:00 878m -12°C -12_2 1cm 100% 2mph 3mph 1000mB
12:00 1179m -8°C -8_4 1cm 100% 4mph 5mph 998mB
15:00 1106m -8°C -8_5 1cm 100% 5mph 6mph 998mB
18:00 576m -8°C -8_3 1cm 99% 3mph 4mph 1000mB
21:00 402m -13°C -13_3 1cm 98% 3mph 4mph 1001mB
0:00 324m -13°C -13_4 1cm 99% 4mph 4mph 1001mB
3:00 96m -15°C -15_3 1cm 100% 3mph 3mph 1001mB
6:00 171m -15°C -15_3 1cm 100% 3mph 3mph 1001mB
9:00 863m -14°C -14_4 0cm 89% 4mph 4mph 1002mB
12:00 1545m -5°C -5_5 0cm 73% 5mph 6mph 1000mB
15:00 1227m -5°C -5_3 0cm 35% 3mph 4mph 1002mB
18:00 261m -5°C -5_5 0cm 45% 5mph 6mph 1006mB
21:00 20m -16°C -16_5 0cm 41% 5mph 6mph 1009mB
0:00 0m -16°C -16_6 0cm 46% 6mph 6mph 1011mB
3:00 0m -19°C -19_4 1cm 72% 4mph 5mph 1014mB
6:00 50m -19°C -19_6 1cm 78% 6mph 7mph 1015mB
9:00 527m -16°C -16_8 1cm 99% 8mph 10mph 1016mB
12:00 799m -11°C -11_7 1cm 99% 7mph 8mph 1015mB
15:00 591m -11°C -11_8 1cm 99% 8mph 9mph 1016mB
18:00 0m -11°C -11_4 1cm 99% 4mph 4mph 1020mB
21:00 0m -23°C -23_3 0cm 82% 3mph 4mph 1022mB
0:00 0m -23°C -23_4 0cm 48% 4mph 5mph 1023mB
3:00 0m -24°C -24_5 0cm 0% 5mph 6mph 1023mB
6:00 0m -24°C -24_5 0cm 0% 5mph 6mph 1023mB
9:00 0m -24°C -24_6 0cm 0% 6mph 8mph 1022mB
12:00 346m -14°C -14_9 0cm 0% 9mph 10mph 1019mB
15:00 15m -14°C -14_8 0cm 0% 8mph 9mph 1018mB
18:00 0m -14°C -14_5 0cm 8% 5mph 6mph 1020mB
21:00 0m -22°C -22_4 0cm 0% 4mph 6mph 1020mB
0:00 0m -22°C -22_4 0cm 29% 4mph 5mph 1017mB
3:00 0m -21°C -21_3 0cm 96% 3mph 5mph 1014mB
6:00 0m -21°C -21_3 0cm 98% 3mph 4mph 1012mB
9:00 368m -19°C -19_3 0cm 100% 3mph 3mph 1010mB
12:00 672m -12°C -12_4 0cm 100% 4mph 4mph 1006mB
Morning 0.208333mm 0 260m -13°C -13_8 2cm 100% 8mph 11mph 998mB
Afternoon 0.182292mm 0.0625 685m -9°C -9_7 1cm 100% 7mph 9mph 994mB
Morning 0.291667mm 0.0625 0m -15°C -15_6 2cm 100% 6mph 7mph 999mB
Afternoon 0.0520833mm 0 571m -10°C -10_6 1cm 70% 6mph 8mph 994mB
Morning 0.015625mm 0 0m -15°C -15_13 0cm 78% 13mph 16mph 990mB
Afternoon 0.338542mm 0 876m -8°C -8_5 3cm 100% 5mph 6mph 988mB
Morning 0.25mm 0 0m -15°C -15_7 2cm 100% 7mph 9mph 996mB
Afternoon 0.119792mm 0 256m -12°C -12_9 1cm 100% 9mph 10mph 1000mB
Morning 0.145833mm 0 0m -18°C -18_6 1cm 100% 6mph 7mph 1006mB
Afternoon 0.15625mm 0 27m -14°C -14_8 1cm 100% 8mph 9mph 1004mB
Morning 0.161458mm 0 0m -19°C -19_0 1cm 100% 0mph 1mph 1006mB
Afternoon 0.130208mm 0 20m -14°C -14_4 1cm 100% 4mph 3mph 1005mB

16 day outlook at a glance

Forecast issued: 17/01/2019 23:01:06

Chat

Your comments and questions. In a resort? Let us know what it's like!


Characters left 250

For terms and conditions see Readers Comments on the Cookie and privacy policy page.